Skip Page Navigation
NASA JPL Caltech
NASA Logo - Jet Propulsion Laboratory + View the NASA Portal
+ Near-Earth Object (NEO) Program
Search JPL
JPL Home Earth Solar System Stars & Galaxies Technology
JPL Solar System Dynamics
BODIES ORBITS EPHEMERIDES TOOLS PHYSICAL DATA DISCOVERY FAQ SITE MAP
JPL Small-Body Database Browser
Search: [ help ]  
302169 (2001 TD45)
Classification: Aten [NEO, PHA]          SPK-ID: 2302169
Ephemeris | Orbit Diagram | Orbital Elements | Physical Parameters | Discovery Circumstances | Close-Approach Data ]

[ hide orbit diagram ]
Orbit Diagram
Note: Make sure you have Java enabled on your browser to see the applet. This applet is provided as a 3D orbit visualization tool. The applet was implemented using 2-body methods, and hence should not be used for determining accurate long-term trajectories (over several years or decades) or planetary encounter circumstances. For accurate long-term ephemerides, please instead use our Horizons system.
Orbit Viewer

Additional Notes: the orbits shown in the applet are color coded. The planets are white lines, and the asteroid/comet is a blue line. The bright white line indicates the portion of the orbit that is above the ecliptic plane, and the darker portion is below the ecliptic plane. Likewise for the asteroid/comet orbit, the light blue indicates the portion above the ecliptic plane, and the dark blue the portion below the ecliptic plane.

Orbit Viewer applet originally written and kindly provided by Osamu Ajiki (AstroArts), and further modified by Ron Baalke (JPL).


Orbital Elements at Epoch 2456400.5 (2013-Apr-18.0) TDB
Reference: JPL 16 (heliocentric ecliptic J2000)
 Element Value Uncertainty (1-sigma)   Units 
e .7774968105207478 4.0052e-07  
a .7967280837428353 8.8265e-09 AU
q .1772745397804736 3.1874e-07 AU
i 25.40577612231292 7.0125e-05 deg
node 30.30291925163161 4.1826e-05 deg
peri 212.4169881457018 3.9693e-05 deg
M 139.1005703167218 7.4837e-05 deg
tp 2456300.133212086082
(2013-Jan-07.63321209)
5.2584e-05 JED
period 259.7548203198637
0.71
4.3165e-06
1.182e-08
d
yr
n 1.385922307646472 2.3031e-08 deg/d
Q 1.416181627705197 1.5689e-08 AU
  Orbit Determination Parameters
   # obs. used (total)      59  
   data-arc span      3698 days (10.12 yr)  
   first obs. used      2001-10-14  
   last obs. used      2011-11-29  
   planetary ephem.      DE405  
   SB-pert. ephem.      SB405-CPV-2  
   condition code      0  
   fit RMS      .52568  
   data source      ORB  
   producer      Otto Matic  
   solution date      2013-Apr-29 15:41:27  

Additional Information
 Earth MOID = .0269769 AU 
 T_jup = 6.975 
[ show covariance matrix ]

Ephemeris | Orbit Diagram | Orbital Elements | Physical Parameters | Discovery Circumstances | Close-Approach Data ]

Physical Parameter Table
Parameter Symbol Value Units Sigma Reference Notes
absolute magnitude H 19.705 mag .93063 16 autocmod 2.5c

302169 (2001 TD45)          Discovered 2001-Oct-15 by LINEAR at Socorro (704)
Reference: 20111110/Numbers.arcLast Updated: 2011-11-14

[ show close-approach data ]
Ephemeris | Orbit Diagram | Orbital Elements | Physical Parameters | Discovery Circumstances | Close-Approach Data ]
ABOUT SSD CREDITS/AWARDS PRIVACY/COPYRIGHT GLOSSARY LINKS
FirstGov 2013-May-22 02:06 UT
(server date/time)  
NASA Home Page
Site Manager:   Donald K. Yeomans
Webmaster  Alan B. Chamberlin